MEASAT-3B

Last updated on Wed Nov 20 2024 00:02:41 GMT+0000 (Coordinated Universal Time)

1 40147U 14054B 24323.82063248 -.00000240 00000+0 00000+0 0 9992 2 40147 0.0742 68.9387 0000635 288.1887 88.1866 1.00271341 37150
UTC large
Height (km)
Speed (km/s)
/
Latitude / Longitude
Inclination (degrees)
Orbital Period (minutes)
Azimuth
Elevation
Range (km)
Doppler Factor

Next 0 passes for location: London (51.5072 / 0.1276)

Sorry there are no passes over London.